CXO

Last updated on Sat Jul 05 2025 00:03:30 GMT+0000 (Coordinated Universal Time)

1 25867U 99040B 25187.94942826 .00000511 00000+0 00000+0 0 9992 2 25867 49.8968 128.8299 8389429 309.7726 0.3708 0.37803286 16013
UTC large
Height (km)
Speed (km/s)
/
Latitude / Longitude
Inclination (degrees)
Orbital Period (minutes)
Azimuth
Elevation
Range (km)
Doppler Factor

Next 0 passes for location: London (51.5072 / 0.1276)

Sorry there are no passes over London.